Location: Tel Aviv
(32.0670°N, 34.7670°E)
Time: 21:34:03
(UTC+02:00)

CUTE-I - Pass Details

Date: 21 December 2025
Orbit: 805 x 817 km, 98.7° (Epoch: 21 January)

Event Time Altitude Azimuth Distance (km) Brightness Sun altitude
Rises 17:41:23 0° 180° (S) 3,303 ? -12.6°
Reaches altitude 10° 17:43:46 10° 185° (S) 2,377 ? -13.1°
Maximum altitude 17:48:51 49° 260° (W) 1,034 ? -14.1°
Drops below altitude 10° 17:53:58 10° 335° (NNW) 2,396 ? -15.1°
Sets 17:56:24 0° 341° (NNW) 3,333 ? -15.6°
